Tracking 31027 objects as of 19-Jul-2025
HD Live streaming from Space Station
objects crossing your sky now

STARLINK-31067

Track STARLINK-31067 now!
10-day predictions
STARLINK-31067 is classified as:


NORAD ID: 58608
Int'l Code: 2023-200V
Perigee: 565.3 km
Apogee: 567.1 km
Inclination: 43.0 °
Period: 95.8 minutes
Semi major axis: 6937 km
RCS: Unknown
Launch date: December 19, 2023
Source: United States (US)
Launch site: AIR FORCE EASTERN TEST RANGE (AFETR)
Your satellite tracking list
FLOCK 3P 17
Track 1 satellite(s)




NASA's NSSDC Master Catalog

Two Line Element Set (TLE):
1 58608U 23200V   25199.46587363  .00000816  00000-0  75508-4 0  9996
2 58608  43.0047   2.7255 0001314 272.7396  87.3296 15.02534118 88363
Source of the keplerian elements: AFSPC